EW0680 Weather Reports


time (UTC)temp
C
wind
direction
speed
KPH
gust
KPH
rain 1hr
cm
rain 24hr
cm
rain mn
cm
humidity
%
barometer
mb
20260903040026 25 122 0.0 0.0 0.00 0.00 0.00 86 1014.6
20260903034527 25 122 0.0 0.0 0.00 0.00 0.00 86 1014.5
20260903033010 25 122 0.0 0.0 0.00 0.00 0.00 86 1014.7
20260903031516 25 122 0.0 0.0 0.00 0.00 0.00 85 1014.8
20260903030021 25 122 0.0 0.0 0.00 0.00 0.00 85 1014.9
20260903024524 25 122 0.0 0.0 0.00 0.00 0.00 85 1015.1
20260903023036 26 122 0.0 0.0 0.00 0.00 0.00 84 1015.1
20260903021530 26 122 0.0 0.0 0.00 0.00 0.00 84 1015.0
20260903020035 26 122 0.0 0.0 0.00 0.00 0.00 83 1014.9
20260903014537 26 122 0.0 0.0 0.00 0.00 0.00 83 1014.9
20260903013058 26 122 0.0 0.0 0.00 0.00 0.00 82 1014.7
20260903011532 26 122 0.0 0.0 0.00 0.00 0.00 82 1014.6
20260903010041 27 122 0.0 0.0 0.00 0.00 0.00 81 1014.4
20260903004552 27 122 0.0 0.0 0.00 0.00 0.00 80 1014.4
20260903003106 27 122 0.0 0.0 0.00 0.00 0.00 79 1014.3
20260903001554 28 122 0.0 0.0 0.00 0.00 0.00 78 1014.2
20260903000108 28 122 0.0 0.0 0.00 0.00 0.00 78 1014.2
20260903000002 28 122 0.0 0.0 0.00 0.00 0.00 78 1014.2
20260902234507 29 122 0.0 0.0 0.00 0.00 0.00 78 1014.2
20260902233012 29 122 0.0 0.0 0.00 0.00 0.00 76 1014.1
20260902231558 30 122 0.0 0.0 0.00 0.00 0.00 75 1014.1
20260902230009 30 122 0.0 0.0 0.00 0.00 0.00 74 1014.3
20260902224516 31 122 0.0 3.2 0.00 0.00 0.00 71 1014.2
20260902223023 31 295 0.0 4.8 0.00 0.00 0.00 71 1014.2
20260902221509 32 322 0.0 0.0 0.00 0.00 0.00 70 1014.5
20260902220014 32 344 0.0 3.2 0.00 0.00 0.00 67 1014.5
20260902214536 32 298 0.0 4.8 0.00 0.00 0.00 66 1014.4
20260902213023 33 328 0.0 6.4 0.00 0.00 0.00 66 1014.5
20260902211529 33 277 0.0 4.8 0.00 0.00 0.00 67 1014.6
20260902210031 33 262 0.0 4.8 0.00 0.00 0.00 65 1014.6
20260902204540 33 285 1.6 12.9 0.00 0.00 0.00 63 1014.7
20260902203020 33 225 0.0 0.0 0.00 0.00 0.00 64 1014.8
20260902201531 33 82 0.0 3.2 0.00 0.00 0.00 67 1015.0
20260902200021 33 256 0.0 4.8 0.00 0.00 0.00 65 1015.2
20260902194534 33 320 0.0 4.8 0.00 0.00 0.00 65 1015.4
20260902193005 33 231 3.2 12.9 0.00 0.00 0.00 64 1015.6
20260902191509 33 13 0.0 11.3 0.00 0.00 0.00 65 1015.6
20260902190015 33 104 0.0 4.8 0.00 0.00 0.00 64 1015.7
20260902184521 33 270 0.0 8.0 0.00 0.00 0.00 66 1015.7
20260902183025 33 335 0.0 8.0 0.00 0.00 0.00 62 1016.0
20260902181527 33 322 1.6 6.4 0.00 0.00 0.00 66 1016.1
20260902180031 32 342 0.0 4.8 0.00 0.00 0.00 65 1016.2
20260902174521 32 331 0.0 4.8 0.00 0.00 0.00 68 1016.3
20260902173015 32 271 1.6 4.8 0.00 0.00 0.00 67 1016.5
20260902171520 32 302 0.0 6.4 0.00 0.00 0.00 66 1016.7
20260902170032 32 92 0.0 9.7 0.00 0.00 0.00 68 1016.7
20260902164538 32 71 1.6 8.0 0.00 0.00 0.00 70 1016.8
20260902163013 32 254 0.0 8.0 0.00 0.00 0.00 72 1016.9
20260902161523 32 301 0.0 4.8 0.00 0.00 0.00 70 1016.9
20260902160015 31 289 0.0 4.8 0.00 0.00 0.00 71 1016.8
20260902154520 31 317 1.6 6.4 0.00 0.00 0.00 71 1016.8
20260902153056 30 211 0.0 4.8 0.00 0.00 0.00 74 1016.8
20260902151601 30 310 0.0 4.8 0.00 0.00 0.00 75 1016.8
20260902151502 30 314 0.0 4.8 0.00 0.00 0.00 76 1016.8
20260902150054 30 312 3.2 6.4 0.00 0.00 0.00 76 1016.9
20260902144559 28 317 1.6 6.4 0.00 0.00 0.00 77 1017.0
20260902143055 28 321 1.6 6.4 0.00 0.00 0.00 78 1017.0
20260902141538 27 312 0.0 4.8 0.00 0.00 0.00 79 1017.1
20260902140039 27 315 0.0 4.8 0.00 0.00 0.00 82 1017.0
20260902134541 26 314 1.6 4.8 0.00 0.00 0.00 82 1017.0
20260902133054 26 313 0.0 1.6 0.00 0.00 0.00 83 1017.0
20260902131540 25 300 0.0 0.0 0.00 0.00 0.00 85 1017.0
20260902130043 25 285 0.0 0.0 0.00 0.00 0.00 86 1017.1
20260902124523 24 285 0.0 1.6 0.00 0.00 0.00 87 1017.0
20260902123009 23 285 0.0 0.0 0.00 0.00 0.00 88 1017.0
20260902121514 22 285 0.0 0.0 0.00 0.00 0.00 88 1016.9
20260902120019 22 285 0.0 0.0 0.00 0.00 0.00 88 1016.8
20260902114520 22 285 0.0 0.0 0.00 0.00 0.00 88 1016.6
20260902113024 22 285 0.0 0.0 0.00 0.00 0.00 88 1016.5
20260902111531 21 285 0.0 0.0 0.00 0.00 0.00 88 1016.3
20260902110037 22 285 0.0 0.0 0.00 0.00 0.00 88 1016.2
20260902104558 22 285 0.0 0.0 0.00 0.00 0.00 88 1016.1
20260902103040 22 285 0.0 0.0 0.00 0.00 0.00 88 1016.1
20260902101551 22 285 0.0 0.0 0.00 0.00 0.00 88 1016.0
20260902100045 22 285 0.0 0.0 0.00 0.00 0.00 88 1016.0
20260902093030 22 285 0.0 0.0 0.00 0.00 0.00 88 1016.1
20260902091538 22 285 0.0 0.0 0.00 0.00 0.00 88 1016.1
20260902090036 22 285 0.0 0.0 0.00 0.00 0.00 88 1016.0
20260902084542 22 285 0.0 0.0 0.00 0.00 0.00 88 1015.9
20260902083056 22 285 0.0 0.0 0.00 0.00 0.00 88 1015.8
20260902081546 22 285 0.0 0.0 0.00 0.00 0.00 88 1015.7
20260902080050 22 285 0.0 0.0 0.00 0.00 0.00 88 1015.6
20260902074609 22 285 0.0 0.0 0.00 0.00 0.00 87 1015.7
20260902073059 22 285 0.0 0.0 0.00 0.00 0.00 87 1015.5
20260902073003 23 285 0.0 0.0 0.00 0.00 0.00 87 1015.5
20260902071504 23 285 0.0 0.0 0.00 0.00 0.00 87 1015.6
20260902070010 23 285 0.0 0.0 0.00 0.00 0.00 87 1015.7
20260902064508 23 285 0.0 0.0 0.00 0.00 0.00 88 1015.7
20260902063008 22 285 0.0 0.0 0.00 0.00 0.00 87 1015.8
20260902061518 23 285 0.0 0.0 0.00 0.00 0.00 86 1015.9
20260902060010 23 285 0.0 0.0 0.00 0.00 0.00 86 1015.9
20260902054518 23 285 0.0 0.0 0.00 0.00 0.00 86 1015.8
20260902053105 23 285 0.0 0.0 0.00 0.00 0.00 86 1015.8
20260902051615 23 285 0.0 0.0 0.00 0.00 0.00 85 1015.7
20260902050108 24 285 0.0 0.0 0.00 0.00 0.00 85 1015.7
20260902050007 24 285 0.0 0.0 0.00 0.00 0.00 85 1015.7
20260902044520 24 285 0.0 0.0 0.00 0.00 0.00 85 1015.7
20260902043012 24 285 0.0 0.0 0.00 0.00 0.00 85 1015.7
20260902041514 24 285 0.0 0.0 0.00 0.00 0.00 85 1015.8